| time (UTC) | temp F | wind direction | speed MPH | gust MPH | rain 1hr in | rain 24hr in | rain mn in | humidity % | barometer mb |
| 20260509141514 | 77 | 195 | 0.0 | 4.0 | 0.00 | 0.00 | 0.00 | 81 | 1010.5 |
| 20260509141011 | 77 | 351 | 0.0 | 4.0 | 0.00 | 0.00 | 0.00 | 82 | 1010.1 |
| 20260509140507 | 76 | 253 | 1.0 | 3.0 | 0.00 | 0.00 | 0.00 | 84 | 1010.2 |
| 20260509140006 | 74 | 76 | 2.0 | 5.0 | 0.00 | 0.00 | 0.00 | 86 | 1010.5 |
| 20260509135502 | 74 | 242 | 0.0 | 2.0 | 0.00 | 0.00 | 0.00 | 88 | 1010.3 |
| 20260509135000 | 73 | 353 | 0.0 | 3.0 | 0.00 | 0.00 | 0.00 | 89 | 1010.4 |
| 20260509134457 | 73 | 185 | 0.0 | 3.0 | 0.00 | 0.00 | 0.00 | 90 | 1010.2 |
| 20260509133955 | 73 | 276 | 0.0 | 2.0 | 0.00 | 0.00 | 0.00 | 90 | 1010.1 |
| 20260509133451 | 72 | 256 | 0.0 | 1.0 | 0.00 | 0.00 | 0.00 | 91 | 1010.1 |
| 20260509132949 | 72 | 195 | 0.0 | 2.0 | 0.00 | 0.00 | 0.00 | 91 | 1010.1 |
| 20260509132447 | 72 | 206 | 0.0 | 2.0 | 0.00 | 0.00 | 0.00 | 92 | 1010.1 |
| 20260509131944 | 72 | 326 | 0.0 | 2.0 | 0.00 | 0.00 | 0.00 | 93 | 1009.9 |
| 20260509131441 | 71 | 239 | 1.0 | 3.0 | 0.00 | 0.00 | 0.00 | 93 | 1009.8 |
| 20260509130937 | 71 | 257 | 1.0 | 3.0 | 0.00 | 0.00 | 0.00 | 93 | 1010.1 |
| 20260509130433 | 71 | 248 | 1.0 | 2.0 | 0.00 | 0.00 | 0.00 | 93 | 1010.2 |
| 20260509125930 | 71 | 289 | 0.0 | 2.0 | 0.00 | 0.00 | 0.00 | 94 | 1010.1 |
| 20260509125427 | 71 | 256 | 1.0 | 3.0 | 0.00 | 0.00 | 0.00 | 94 | 1010.3 |
| 20260509124923 | 71 | 240 | 0.0 | 2.0 | 0.00 | 0.00 | 0.00 | 94 | 1009.8 |
| 20260509124420 | 71 | 217 | 0.0 | 2.0 | 0.00 | 0.00 | 0.00 | 94 | 1009.8 |
| 20260509123917 | 71 | 257 | 0.0 | 1.0 | 0.00 | 0.00 | 0.00 | 94 | 1009.8 |
| 20260509123414 | 71 | 217 | 0.0 | 1.0 | 0.00 | 0.00 | 0.00 | 94 | 1010.0 |
| 20260509122910 | 71 | 185 | 0.0 | 1.0 | 0.00 | 0.00 | 0.00 | 95 | 1010.0 |
| 20260509122408 | 71 | 222 | 1.0 | 1.0 | 0.00 | 0.00 | 0.00 | 95 | 1009.8 |
| 20260509121904 | 70 | 285 | 1.0 | 1.0 | 0.00 | 0.00 | 0.00 | 96 | 1009.9 |
| 20260509121401 | 70 | 292 | 0.0 | 2.0 | 0.00 | 0.00 | 0.00 | 96 | 1009.8 |
| 20260509120859 | 70 | 209 | 0.0 | 1.0 | 0.00 | 0.00 | 0.00 | 96 | 1009.8 |
| 20260509120356 | 69 | 217 | 0.0 | 1.0 | 0.00 | 0.00 | 0.00 | 96 | 1009.8 |
| 20260509115854 | 69 | 217 | 0.0 | 1.0 | 0.00 | 0.00 | 0.00 | 96 | 1010.0 |
| 20260509115351 | 69 | 242 | 0.0 | 1.0 | 0.00 | 0.00 | 0.00 | 96 | 1009.7 |
| 20260509114849 | 69 | 244 | 1.0 | 1.0 | 0.00 | 0.00 | 0.00 | 96 | 1009.8 |
| 20260509114348 | 69 | 309 | 0.0 | 2.0 | 0.00 | 0.00 | 0.00 | 96 | 1009.8 |
| 20260509113847 | 70 | 248 | 0.0 | 2.0 | 0.00 | 0.00 | 0.00 | 95 | 1009.2 |
| 20260509113343 | 70 | 255 | 0.0 | 1.0 | 0.00 | 0.00 | 0.00 | 95 | 1009.6 |
| 20260509112840 | 70 | 29 | 1.0 | 3.0 | 0.00 | 0.00 | 0.00 | 95 | 1009.4 |
| 20260509112337 | 70 | 328 | 0.0 | 2.0 | 0.00 | 0.00 | 0.00 | 95 | 1009.2 |
| 20260509111834 | 70 | 89 | 0.0 | 1.0 | 0.00 | 0.00 | 0.00 | 95 | 1009.4 |
| 20260509111331 | 70 | 333 | 0.0 | 3.0 | 0.00 | 0.00 | 0.00 | 95 | 1009.2 |
| 20260509110829 | 70 | 321 | 0.0 | 2.0 | 0.00 | 0.00 | 0.00 | 95 | 1009.0 |
| 20260509110325 | 70 | 301 | 0.0 | 2.0 | 0.00 | 0.00 | 0.00 | 95 | 1008.9 |
| 20260509105823 | 70 | 345 | 0.0 | 1.0 | 0.00 | 0.00 | 0.00 | 95 | 1009.0 |
| 20260509105321 | 70 | 6 | 0.0 | 2.0 | 0.00 | 0.00 | 0.00 | 95 | 1008.5 |
| 20260509104817 | 70 | 205 | 0.0 | 3.0 | 0.00 | 0.00 | 0.00 | 95 | 1008.8 |
| 20260509104314 | 70 | 287 | 0.0 | 3.0 | 0.00 | 0.00 | 0.00 | 94 | 1008.5 |
| 20260509103812 | 70 | 277 | 0.0 | 3.0 | 0.00 | 0.00 | 0.00 | 94 | 1008.5 |
| 20260509103309 | 70 | 176 | 2.0 | 3.0 | 0.00 | 0.00 | 0.00 | 94 | 1008.6 |
| 20260509102808 | 70 | 197 | 0.0 | 3.0 | 0.00 | 0.00 | 0.00 | 94 | 1008.9 |
| 20260509102306 | 70 | 177 | 2.0 | 4.0 | 0.00 | 0.00 | 0.00 | 94 | 1008.6 |
| 20260509101800 | 70 | 208 | 0.0 | 3.0 | 0.00 | 0.00 | 0.00 | 94 | 1008.9 |
| 20260509101256 | 70 | 10 | 0.0 | 2.0 | 0.00 | 0.00 | 0.00 | 94 | 1008.9 |
| 20260509100754 | 70 | 66 | 1.0 | 2.0 | 0.00 | 0.00 | 0.00 | 94 | 1008.8 |
| 20260509100252 | 70 | 224 | 0.0 | 2.0 | 0.00 | 0.00 | 0.00 | 94 | 1009.2 |
| 20260509095748 | 70 | 212 | 0.0 | 1.0 | 0.00 | 0.00 | 0.00 | 94 | 1009.0 |
| 20260509095245 | 70 | 309 | 0.0 | 0.0 | 0.00 | 0.00 | 0.00 | 94 | 1008.9 |
| 20260509094742 | 70 | 320 | 0.0 | 2.0 | 0.00 | 0.00 | 0.00 | 94 | 1008.8 |
| 20260509094239 | 70 | 318 | 1.0 | 2.0 | 0.00 | 0.00 | 0.00 | 94 | 1008.7 |
| 20260509093737 | 70 | 262 | 1.0 | 2.0 | 0.00 | 0.00 | 0.00 | 94 | 1008.5 |
| 20260509093234 | 70 | 15 | 0.0 | 2.0 | 0.00 | 0.00 | 0.00 | 94 | 1008.4 |
| 20260509092732 | 69 | 235 | 1.0 | 2.0 | 0.00 | 0.00 | 0.00 | 94 | 1008.3 |
| 20260509092230 | 69 | 253 | 1.0 | 2.0 | 0.00 | 0.00 | 0.00 | 94 | 1008.0 |
| 20260509091728 | 69 | 236 | 1.0 | 5.0 | 0.00 | 0.00 | 0.00 | 94 | 1007.5 |
| 20260509091223 | 69 | 4 | 1.0 | 5.0 | 0.00 | 0.00 | 0.00 | 94 | 1007.2 |
| 20260509090721 | 70 | 334 | 0.0 | 5.0 | 0.00 | 0.00 | 0.00 | 94 | 1007.4 |
| 20260509090218 | 70 | 223 | 3.0 | 5.0 | 0.00 | 0.00 | 0.00 | 93 | 1007.3 |
| 20260509085716 | 70 | 0 | 3.0 | 5.0 | 0.00 | 0.00 | 0.00 | 93 | 1007.3 |
| 20260509085213 | 70 | 275 | 3.0 | 5.0 | 0.00 | 0.00 | 0.00 | 93 | 1007.6 |
| 20260509084709 | 70 | 277 | 0.0 | 5.0 | 0.00 | 0.00 | 0.00 | 93 | 1007.5 |
| 20260509084206 | 70 | 197 | 1.0 | 7.0 | 0.00 | 0.00 | 0.00 | 93 | 1007.6 |
| 20260509083704 | 69 | 169 | 2.0 | 7.0 | 0.00 | 0.00 | 0.00 | 93 | 1007.8 |
| 20260509083201 | 69 | 228 | 1.0 | 5.0 | 0.00 | 0.00 | 0.00 | 93 | 1007.8 |
| 20260509082658 | 69 | 295 | 2.0 | 5.0 | 0.00 | 0.00 | 0.00 | 93 | 1008.1 |
| 20260509082154 | 69 | 352 | 2.0 | 4.0 | 0.00 | 0.00 | 0.00 | 92 | 1008.4 |
| 20260509081651 | 69 | 304 | 0.0 | 7.0 | 0.00 | 0.00 | 0.00 | 92 | 1008.7 |
| 20260509081148 | 69 | 277 | 2.0 | 3.0 | 0.00 | 0.00 | 0.00 | 92 | 1008.9 |
| 20260509080646 | 70 | 157 | 0.0 | 3.0 | 0.00 | 0.00 | 0.00 | 92 | 1008.9 |
| 20260509080144 | 70 | 259 | 2.0 | 3.0 | 0.00 | 0.00 | 0.00 | 91 | 1009.5 |
| 20260509075642 | 70 | 26 | 1.0 | 3.0 | 0.00 | 0.00 | 0.00 | 91 | 1009.6 |
| 20260509075140 | 70 | 321 | 0.0 | 1.0 | 0.00 | 0.00 | 0.00 | 91 | 1009.8 |
| 20260509074636 | 70 | 68 | 0.0 | 3.0 | 0.00 | 0.00 | 0.00 | 91 | 1009.6 |
| 20260509074132 | 70 | 350 | 1.0 | 3.0 | 0.00 | 0.00 | 0.00 | 91 | 1010.3 |
| 20260509073630 | 70 | 147 | 0.0 | 2.0 | 0.00 | 0.00 | 0.00 | 91 | 1010.0 |
| 20260509073126 | 70 | 315 | 0.0 | 1.0 | 0.00 | 0.00 | 0.00 | 91 | 1010.1 |
| 20260509072623 | 70 | 72 | 0.0 | 1.0 | 0.00 | 0.00 | 0.00 | 91 | 1010.4 |
| 20260509072120 | 70 | 129 | 0.0 | 1.0 | 0.00 | 0.00 | 0.00 | 91 | 1010.5 |
| 20260509071616 | 70 | 315 | 0.0 | 0.0 | 0.00 | 0.00 | 0.00 | 92 | 1010.6 |
| 20260509071114 | 69 | 255 | 0.0 | 0.0 | 0.00 | 0.00 | 0.00 | 92 | 1010.5 |
| 20260509070611 | 69 | 255 | 0.0 | 1.0 | 0.00 | 0.00 | 0.00 | 92 | 1010.7 |
| 20260509070107 | 69 | 297 | 0.0 | 2.0 | 0.00 | 0.00 | 0.00 | 92 | 1010.2 |
| 20260509065602 | 69 | 238 | 1.0 | 2.0 | 0.00 | 0.00 | 0.00 | 92 | 1010.2 |
| 20260509065058 | 69 | 282 | 0.0 | 2.0 | 0.00 | 0.00 | 0.00 | 91 | 1010.2 |
| 20260509064556 | 69 | 220 | 1.0 | 4.0 | 0.00 | 0.00 | 0.00 | 91 | 1009.7 |
| 20260509064054 | 69 | 226 | 1.0 | 3.0 | 0.00 | 0.00 | 0.00 | 91 | 1009.6 |
| 20260509063550 | 69 | 210 | 2.0 | 3.0 | 0.00 | 0.00 | 0.00 | 91 | 1009.6 |
| 20260509063047 | 69 | 200 | 2.0 | 4.0 | 0.00 | 0.00 | 0.00 | 90 | 1009.7 |
| 20260509062544 | 69 | 226 | 1.0 | 5.0 | 0.00 | 0.00 | 0.00 | 90 | 1009.9 |
| 20260509062042 | 69 | 235 | 1.0 | 3.0 | 0.00 | 0.00 | 0.00 | 90 | 1009.9 |
| 20260509061538 | 70 | 190 | 2.0 | 3.0 | 0.00 | 0.00 | 0.00 | 90 | 1010.0 |
| 20260509061036 | 70 | 204 | 1.0 | 3.0 | 0.00 | 0.00 | 0.00 | 89 | 1009.7 |
| 20260509060533 | 70 | 292 | 0.0 | 3.0 | 0.00 | 0.00 | 0.00 | 89 | 1010.1 |
| 20260509060029 | 70 | 208 | 0.0 | 3.0 | 0.00 | 0.00 | 0.00 | 88 | 1010.1 |
| 20260509055524 | 70 | 202 | 0.0 | 2.0 | 0.00 | 0.00 | 0.00 | 88 | 1010.4 |
| 20260509055021 | 70 | 217 | 0.0 | 1.0 | 0.00 | 0.00 | 0.00 | 88 | 1010.6 |
| 20260509054517 | 70 | 185 | 0.0 | 2.0 | 0.00 | 0.00 | 0.00 | 88 | 1010.7 |
| 20260509054016 | 70 | 235 | 0.0 | 2.0 | 0.00 | 0.00 | 0.00 | 88 | 1010.8 |
| 20260509053514 | 70 | 237 | 0.0 | 2.0 | 0.00 | 0.00 | 0.00 | 88 | 1010.7 |
| 20260509053010 | 70 | 113 | 0.0 | 2.0 | 0.00 | 0.00 | 0.00 | 88 | 1010.4 |
| 20260509052508 | 70 | 205 | 0.0 | 2.0 | 0.00 | 0.00 | 0.00 | 88 | 1010.8 |
| 20260509052006 | 71 | 224 | 0.0 | 2.0 | 0.00 | 0.00 | 0.00 | 88 | 1011.1 |
| 20260509051504 | 71 | 278 | 1.0 | 3.0 | 0.00 | 0.00 | 0.00 | 87 | 1011.6 |
| 20260509051000 | 71 | 12 | 0.0 | 3.0 | 0.00 | 0.00 | 0.00 | 87 | 1011.6 |
| 20260509050457 | 71 | 345 | 2.0 | 3.0 | 0.00 | 0.00 | 0.00 | 87 | 1011.0 |
| 20260509045953 | 71 | 265 | 2.0 | 2.0 | 0.00 | 0.00 | 0.00 | 86 | 1010.3 |
| 20260509045451 | 71 | 269 | 0.0 | 2.0 | 0.00 | 0.00 | 0.00 | 86 | 1009.8 |
| 20260509044948 | 71 | 220 | 2.0 | 4.0 | 0.00 | 0.00 | 0.00 | 85 | 1009.7 |
| 20260509044445 | 71 | 241 | 1.0 | 4.0 | 0.00 | 0.00 | 0.00 | 85 | 1009.7 |
| 20260509043942 | 71 | 229 | 0.0 | 3.0 | 0.00 | 0.00 | 0.00 | 85 | 1010.0 |
| 20260509043438 | 71 | 180 | 1.0 | 3.0 | 0.00 | 0.00 | 0.00 | 84 | 1009.5 |
| 20260509042933 | 71 | 250 | 2.0 | 4.0 | 0.00 | 0.00 | 0.00 | 84 | 1009.5 |
| 20260509042431 | 71 | 174 | 2.0 | 5.0 | 0.00 | 0.00 | 0.00 | 84 | 1008.9 |
| 20260509041927 | 72 | 207 | 3.0 | 5.0 | 0.00 | 0.00 | 0.00 | 83 | 1009.1 |
| 20260509041424 | 72 | 233 | 2.0 | 6.0 | 0.00 | 0.00 | 0.00 | 82 | 1009.4 |
| 20260509040922 | 72 | 183 | 2.0 | 7.0 | 0.00 | 0.00 | 0.00 | 82 | 1009.4 |
| 20260509040420 | 72 | 193 | 1.0 | 5.0 | 0.00 | 0.00 | 0.00 | 81 | 1010.0 |
| 20260509035916 | 72 | 224 | 1.0 | 3.0 | 0.00 | 0.00 | 0.00 | 82 | 1010.2 |
| 20260509035413 | 72 | 315 | 0.0 | 4.0 | 0.00 | 0.00 | 0.00 | 82 | 1010.8 |
| 20260509034910 | 72 | 352 | 0.0 | 0.0 | 0.00 | 0.00 | 0.00 | 82 | 1010.5 |
| 20260509034408 | 72 | 230 | 0.0 | 2.0 | 0.00 | 0.00 | 0.00 | 82 | 1010.7 |
| 20260509033905 | 72 | 315 | 0.0 | 0.0 | 0.00 | 0.00 | 0.00 | 82 | 1010.9 |
| 20260509033402 | 72 | 309 | 0.0 | 1.0 | 0.00 | 0.00 | 0.00 | 82 | 1010.5 |
| 20260509032858 | 72 | 283 | 0.0 | 1.0 | 0.00 | 0.00 | 0.00 | 82 | 1010.5 |
| 20260509032355 | 72 | 242 | 0.0 | 1.0 | 0.00 | 0.00 | 0.00 | 82 | 1010.3 |
| 20260509031853 | 72 | 255 | 0.0 | 1.0 | 0.00 | 0.00 | 0.00 | 82 | 1010.0 |
| 20260509031350 | 72 | 221 | 1.0 | 2.0 | 0.00 | 0.00 | 0.00 | 82 | 1010.0 |
| 20260509030848 | 72 | 248 | 0.0 | 2.0 | 0.00 | 0.00 | 0.00 | 82 | 1010.0 |
| 20260509030346 | 72 | 239 | 1.0 | 2.0 | 0.00 | 0.00 | 0.00 | 82 | 1010.2 |
| 20260509025843 | 72 | 234 | 1.0 | 2.0 | 0.00 | 0.00 | 0.00 | 82 | 1010.0 |
| 20260509025338 | 72 | 205 | 2.0 | 4.0 | 0.00 | 0.00 | 0.00 | 82 | 1009.7 |
| 20260509024833 | 72 | 178 | 3.0 | 4.0 | 0.00 | 0.00 | 0.00 | 82 | 1009.7 |
| 20260509024330 | 72 | 217 | 0.0 | 3.0 | 0.00 | 0.00 | 0.00 | 82 | 1009.6 |
| 20260509023827 | 72 | 170 | 1.0 | 3.0 | 0.00 | 0.00 | 0.00 | 82 | 1009.6 |
| 20260509023324 | 72 | 193 | 0.0 | 3.0 | 0.00 | 0.00 | 0.00 | 82 | 1009.4 |
| 20260509022821 | 72 | 168 | 0.0 | 2.0 | 0.00 | 0.00 | 0.00 | 82 | 1009.1 |
| 20260509022318 | 72 | 138 | 2.0 | 5.0 | 0.00 | 0.00 | 0.00 | 82 | 1008.9 |
| 20260509021815 | 72 | 194 | 1.0 | 3.0 | 0.00 | 0.00 | 0.00 | 81 | 1008.9 |
| 20260509021312 | 72 | 211 | 2.0 | 4.0 | 0.00 | 0.00 | 0.00 | 81 | 1009.0 |
| 20260509020809 | 72 | 254 | 0.0 | 3.0 | 0.00 | 0.00 | 0.00 | 81 | 1008.8 |
| 20260509020308 | 72 | 198 | 0.0 | 4.0 | 0.00 | 0.00 | 0.00 | 81 | 1008.8 |
| 20260509015805 | 72 | 228 | 1.0 | 3.0 | 0.00 | 0.00 | 0.00 | 81 | 1008.9 |
| 20260509015306 | 72 | 87 | 1.0 | 3.0 | 0.00 | 0.00 | 0.00 | 80 | 1008.8 |
| 20260509014759 | 72 | 263 | 0.0 | 3.0 | 0.00 | 0.00 | 0.00 | 80 | 1008.9 |
| 20260509014256 | 72 | 204 | 1.0 | 3.0 | 0.00 | 0.00 | 0.00 | 80 | 1008.7 |
| 20260509013753 | 72 | 220 | 1.0 | 2.0 | 0.00 | 0.00 | 0.00 | 79 | 1008.7 |
| 20260509013248 | 73 | 217 | 1.0 | 3.0 | 0.00 | 0.00 | 0.00 | 79 | 1008.6 |
| 20260509012745 | 73 | 240 | 1.0 | 3.0 | 0.00 | 0.00 | 0.00 | 79 | 1008.7 |
| 20260509012242 | 73 | 224 | 1.0 | 2.0 | 0.00 | 0.00 | 0.00 | 79 | 1008.7 |
| 20260509011739 | 73 | 179 | 1.0 | 3.0 | 0.00 | 0.00 | 0.00 | 78 | 1008.6 |
| 20260509011237 | 73 | 191 | 1.0 | 3.0 | 0.00 | 0.00 | 0.00 | 78 | 1008.5 |
| 20260509010734 | 73 | 237 | 0.0 | 3.0 | 0.00 | 0.00 | 0.00 | 78 | 1008.6 |
| 20260509010231 | 73 | 228 | 1.0 | 4.0 | 0.00 | 0.00 | 0.00 | 77 | 1008.5 |
| 20260509005728 | 73 | 208 | 1.0 | 4.0 | 0.00 | 0.00 | 0.00 | 77 | 1008.5 |
| 20260509005225 | 73 | 179 | 2.0 | 6.0 | 0.00 | 0.00 | 0.00 | 77 | 1008.2 |
| 20260509004719 | 73 | 182 | 4.0 | 5.0 | 0.00 | 0.00 | 0.00 | 76 | 1008.4 |
| 20260509004217 | 73 | 154 | 3.0 | 5.0 | 0.00 | 0.00 | 0.00 | 76 | 1008.2 |
| 20260509003715 | 74 | 237 | 1.0 | 5.0 | 0.00 | 0.00 | 0.00 | 75 | 1007.9 |
| 20260509003213 | 74 | 316 | 2.0 | 4.0 | 0.00 | 0.00 | 0.00 | 75 | 1008.0 |
| 20260509002710 | 74 | 242 | 2.0 | 5.0 | 0.00 | 0.00 | 0.00 | 75 | 1008.1 |
| 20260509002208 | 74 | 230 | 3.0 | 5.0 | 0.00 | 0.00 | 0.00 | 74 | 1008.3 |
| 20260509001705 | 75 | 223 | 2.0 | 6.0 | 0.00 | 0.00 | 0.00 | 73 | 1008.0 |
| 20260509001200 | 75 | 257 | 1.0 | 7.0 | 0.00 | 0.00 | 0.00 | 72 | 1008.2 |
| 20260509000659 | 75 | 183 | 2.0 | 7.0 | 0.00 | 0.00 | 0.00 | 72 | 1008.3 |
| 20260509000156 | 75 | 208 | 3.0 | 4.0 | 0.00 | 0.00 | 0.00 | 72 | 1008.4 |
| 20260508235653 | 75 | 274 | 2.0 | 6.0 | 0.00 | 0.00 | 0.00 | 72 | 1008.4 |
| 20260508235149 | 75 | 217 | 3.0 | 9.0 | 0.00 | 0.00 | 0.00 | 71 | 1008.5 |
| 20260508234646 | 76 | 276 | 2.0 | 7.0 | 0.00 | 0.00 | 0.00 | 70 | 1008.3 |
| 20260508234142 | 78 | 197 | 3.0 | 5.0 | 0.00 | 0.00 | 0.00 | 68 | 1008.3 |
| 20260508233637 | 78 | 163 | 4.0 | 7.0 | 0.00 | 0.00 | 0.00 | 68 | 1008.5 |
| 20260508233134 | 77 | 212 | 3.0 | 6.0 | 0.00 | 0.00 | 0.00 | 68 | 1008.5 |
| 20260508232631 | 77 | 229 | 2.0 | 6.0 | 0.00 | 0.00 | 0.00 | 69 | 1008.7 |
| 20260508232128 | 76 | 242 | 2.0 | 5.0 | 0.00 | 0.00 | 0.00 | 70 | 1008.6 |
| 20260508231625 | 77 | 194 | 0.0 | 6.0 | 0.00 | 0.00 | 0.00 | 70 | 1008.6 |
| 20260508231122 | 77 | 209 | 3.0 | 7.0 | 0.00 | 0.00 | 0.00 | 69 | 1008.6 |
| 20260508230618 | 77 | 268 | 2.0 | 6.0 | 0.00 | 0.00 | 0.00 | 69 | 1008.8 |
| 20260508230115 | 78 | 223 | 1.0 | 5.0 | 0.00 | 0.00 | 0.00 | 69 | 1008.6 |
| 20260508225613 | 77 | 162 | 4.0 | 8.0 | 0.00 | 0.00 | 0.00 | 69 | 1008.6 |
| 20260508225109 | 77 | 211 | 2.0 | 6.0 | 0.00 | 0.00 | 0.00 | 69 | 1008.5 |
| 20260508224607 | 78 | 330 | 0.0 | 5.0 | 0.00 | 0.00 | 0.00 | 69 | 1008.8 |
| 20260508224104 | 78 | 257 | 2.0 | 5.0 | 0.00 | 0.00 | 0.00 | 68 | 1008.6 |
| 20260508223602 | 79 | 240 | 2.0 | 5.0 | 0.00 | 0.00 | 0.00 | 68 | 1008.7 |
| 20260508223058 | 80 | 208 | 5.0 | 9.0 | 0.00 | 0.00 | 0.00 | 66 | 1008.5 |
| 20260508222556 | 80 | 165 | 3.0 | 12.0 | 0.00 | 0.00 | 0.00 | 65 | 1008.6 |
| 20260508222053 | 81 | 209 | 4.0 | 6.0 | 0.00 | 0.00 | 0.00 | 64 | 1008.5 |
| 20260508221549 | 81 | 228 | 4.0 | 11.0 | 0.00 | 0.00 | 0.00 | 65 | 1008.3 |
| 20260508221045 | 82 | 226 | 3.0 | 8.0 | 0.00 | 0.00 | 0.00 | 63 | 1008.2 |
| 20260508220542 | 82 | 189 | 4.0 | 8.0 | 0.00 | 0.00 | 0.00 | 62 | 1008.2 |
| 20260508220038 | 83 | 200 | 4.0 | 8.0 | 0.00 | 0.00 | 0.00 | 61 | 1008.1 |
| 20260508215535 | 83 | 199 | 4.0 | 9.0 | 0.00 | 0.00 | 0.00 | 61 | 1008.3 |
| 20260508215032 | 82 | 203 | 3.0 | 10.0 | 0.00 | 0.00 | 0.00 | 61 | 1008.3 |
| 20260508214530 | 83 | 213 | 2.0 | 5.0 | 0.00 | 0.00 | 0.00 | 60 | 1008.2 |
| 20260508214025 | 82 | 227 | 3.0 | 4.0 | 0.00 | 0.00 | 0.00 | 62 | 1008.1 |
| 20260508213523 | 81 | 229 | 2.0 | 8.0 | 0.00 | 0.00 | 0.00 | 64 | 1008.4 |
| 20260508213019 | 80 | 309 | 3.0 | 6.0 | 0.00 | 0.00 | 0.00 | 63 | 1008.6 |
| 20260508212515 | 81 | 251 | 3.0 | 4.0 | 0.00 | 0.00 | 0.00 | 64 | 1008.3 |
| 20260508212012 | 80 | 310 | 3.0 | 8.0 | 0.00 | 0.00 | 0.00 | 63 | 1008.9 |
| 20260508211508 | 80 | 161 | 0.0 | 6.0 | 0.00 | 0.00 | 0.00 | 65 | 1009.0 |
| 20260508211004 | 77 | 218 | 2.0 | 6.0 | 0.00 | 0.00 | 0.00 | 67 | 1009.1 |
| 20260508210501 | 76 | 103 | 3.0 | 9.0 | 0.00 | 0.00 | 0.00 | 69 | 1009.6 |
| 20260508205957 | 76 | 240 | 0.0 | 6.0 | 0.00 | 0.00 | 0.00 | 68 | 1009.7 |
| 20260508205455 | 76 | 236 | 2.0 | 4.0 | 0.00 | 0.00 | 0.00 | 69 | 1009.8 |
| 20260508204951 | 76 | 202 | 3.0 | 4.0 | 0.00 | 0.00 | 0.00 | 68 | 1010.2 |
| 20260508204448 | 77 | 211 | 0.0 | 5.0 | 0.00 | 0.00 | 0.00 | 67 | 1010.2 |
| 20260508203943 | 77 | 204 | 3.0 | 7.0 | 0.00 | 0.00 | 0.00 | 66 | 1010.5 |
| 20260508203440 | 77 | 229 | 2.0 | 6.0 | 0.00 | 0.00 | 0.00 | 67 | 1010.2 |
| 20260508202935 | 77 | 212 | 2.0 | 5.0 | 0.00 | 0.00 | 0.00 | 66 | 1010.5 |
| 20260508202433 | 78 | 240 | 0.0 | 6.0 | 0.00 | 0.00 | 0.00 | 65 | 1010.5 |
| 20260508201930 | 78 | 237 | 2.0 | 6.0 | 0.00 | 0.00 | 0.00 | 65 | 1010.2 |
| 20260508201427 | 79 | 232 | 2.0 | 4.0 | 0.00 | 0.00 | 0.00 | 63 | 1010.1 |
| 20260508200923 | 79 | 185 | 3.0 | 5.0 | 0.00 | 0.00 | 0.00 | 62 | 1010.4 |
| 20260508200420 | 80 | 193 | 3.0 | 8.0 | 0.00 | 0.00 | 0.00 | 62 | 1010.4 |
| 20260508195915 | 81 | 250 | 2.0 | 5.0 | 0.00 | 0.00 | 0.00 | 63 | 1010.3 |
| 20260508195413 | 80 | 211 | 3.0 | 7.0 | 0.00 | 0.00 | 0.00 | 62 | 1010.4 |
| 20260508194909 | 80 | 159 | 0.0 | 7.0 | 0.00 | 0.00 | 0.00 | 62 | 1010.5 |
| 20260508194406 | 80 | 214 | 1.0 | 7.0 | 0.00 | 0.00 | 0.00 | 63 | 1010.6 |
| 20260508193903 | 80 | 355 | 2.0 | 4.0 | 0.00 | 0.00 | 0.00 | 63 | 1010.4 |
| 20260508193400 | 80 | 119 | 2.0 | 7.0 | 0.00 | 0.00 | 0.00 | 62 | 1010.7 |
| 20260508192856 | 80 | 244 | 2.0 | 6.0 | 0.00 | 0.00 | 0.00 | 63 | 1010.6 |
| 20260508192353 | 80 | 177 | 4.0 | 7.0 | 0.00 | 0.00 | 0.00 | 62 | 1010.8 |
| 20260508191850 | 80 | 258 | 3.0 | 9.0 | 0.00 | 0.00 | 0.00 | 62 | 1010.7 |
| 20260508191348 | 79 | 314 | 1.0 | 5.0 | 0.00 | 0.00 | 0.00 | 63 | 1010.9 |
| 20260508190844 | 79 | 121 | 1.0 | 7.0 | 0.00 | 0.00 | 0.00 | 62 | 1010.9 |
| 20260508190341 | 80 | 213 | 3.0 | 7.0 | 0.00 | 0.00 | 0.00 | 60 | 1011.0 |
| 20260508185837 | 80 | 260 | 2.0 | 8.0 | 0.00 | 0.00 | 0.00 | 62 | 1010.7 |
| 20260508185335 | 80 | 204 | 1.0 | 7.0 | 0.00 | 0.00 | 0.00 | 61 | 1011.1 |
| 20260508184832 | 79 | 47 | 3.0 | 8.0 | 0.00 | 0.00 | 0.00 | 60 | 1010.9 |
| 20260508184329 | 79 | 178 | 3.0 | 10.0 | 0.00 | 0.00 | 0.00 | 61 | 1011.0 |
| 20260508183826 | 79 | 210 | 3.0 | 5.0 | 0.00 | 0.00 | 0.00 | 60 | 1011.1 |
| 20260508183323 | 79 | 146 | 0.0 | 8.0 | 0.00 | 0.00 | 0.00 | 59 | 1011.5 |
| 20260508182818 | 79 | 265 | 4.0 | 5.0 | 0.00 | 0.00 | 0.00 | 61 | 1011.3 |
| 20260508182315 | 79 | 225 | 2.0 | 5.0 | 0.00 | 0.00 | 0.00 | 61 | 1011.2 |
| 20260508181811 | 78 | 148 | 3.0 | 4.0 | 0.00 | 0.00 | 0.00 | 61 | 1011.3 |
| 20260508181308 | 78 | 117 | 1.0 | 5.0 | 0.00 | 0.00 | 0.00 | 61 | 1011.6 |
| 20260508180805 | 78 | 248 | 2.0 | 5.0 | 0.00 | 0.00 | 0.00 | 61 | 1011.6 |
| 20260508180302 | 78 | 240 | 3.0 | 11.0 | 0.00 | 0.00 | 0.00 | 62 | 1011.7 |
| 20260508175758 | 78 | 247 | 2.0 | 7.0 | 0.00 | 0.00 | 0.00 | 62 | 1011.7 |
| 20260508175255 | 78 | 234 | 0.0 | 8.0 | 0.00 | 0.00 | 0.00 | 62 | 1011.9 |
| 20260508174753 | 78 | 191 | 2.0 | 4.0 | 0.00 | 0.00 | 0.00 | 60 | 1011.9 |
| 20260508174250 | 78 | 234 | 3.0 | 5.0 | 0.00 | 0.00 | 0.00 | 65 | 1012.0 |
| 20260508173746 | 78 | 321 | 2.0 | 5.0 | 0.00 | 0.00 | 0.00 | 64 | 1012.0 |
| 20260508173242 | 77 | 1 | 1.0 | 6.0 | 0.00 | 0.00 | 0.00 | 62 | 1011.9 |
| 20260508172739 | 77 | 45 | 3.0 | 7.0 | 0.00 | 0.00 | 0.00 | 64 | 1012.3 |
| 20260508172236 | 76 | 121 | 1.0 | 7.0 | 0.00 | 0.00 | 0.00 | 64 | 1012.3 |
| 20260508171733 | 75 | 328 | 3.0 | 4.0 | 0.00 | 0.00 | 0.00 | 64 | 1012.7 |
| 20260508171229 | 75 | 57 | 0.0 | 4.0 | 0.00 | 0.00 | 0.00 | 64 | 1012.9 |
| 20260508170726 | 74 | 276 | 1.0 | 3.0 | 0.00 | 0.00 | 0.00 | 67 | 1012.7 |
| 20260508170224 | 73 | 293 | 0.0 | 5.0 | 0.00 | 0.00 | 0.00 | 67 | 1012.8 |
| 20260508165720 | 74 | 180 | 5.0 | 6.0 | 0.00 | 0.00 | 0.00 | 65 | 1012.9 |
| 20260508165218 | 73 | 353 | 1.0 | 4.0 | 0.00 | 0.00 | 0.00 | 66 | 1013.2 |
| 20260508164714 | 73 | 252 | 2.0 | 7.0 | 0.00 | 0.00 | 0.00 | 69 | 1013.2 |
| 20260508164211 | 74 | 162 | 3.0 | 5.0 | 0.00 | 0.00 | 0.00 | 66 | 1013.5 |
| 20260508163709 | 74 | 252 | 1.0 | 4.0 | 0.00 | 0.00 | 0.00 | 65 | 1013.3 |
| 20260508163206 | 73 | 326 | 3.0 | 7.0 | 0.00 | 0.00 | 0.00 | 66 | 1013.6 |
| 20260508162701 | 72 | 209 | 1.0 | 4.0 | 0.00 | 0.00 | 0.00 | 68 | 1013.7 |
| 20260508162159 | 72 | 204 | 2.0 | 4.0 | 0.00 | 0.00 | 0.00 | 68 | 1013.5 |
| 20260508161655 | 73 | 255 | 2.0 | 5.0 | 0.00 | 0.00 | 0.00 | 67 | 1013.8 |
| 20260508161153 | 72 | 210 | 3.0 | 7.0 | 0.00 | 0.00 | 0.00 | 67 | 1013.7 |
| 20260508160651 | 72 | 121 | 3.0 | 8.0 | 0.00 | 0.00 | 0.00 | 67 | 1013.8 |
| 20260508160149 | 71 | 212 | 3.0 | 6.0 | 0.00 | 0.00 | 0.00 | 67 | 1013.7 |
| 20260508155645 | 72 | 222 | 2.0 | 5.0 | 0.00 | 0.00 | 0.00 | 67 | 1014.0 |
| 20260508155142 | 73 | 67 | 1.0 | 5.0 | 0.00 | 0.00 | 0.00 | 65 | 1014.1 |
| 20260508154639 | 73 | 238 | 1.0 | 5.0 | 0.00 | 0.00 | 0.00 | 65 | 1013.9 |
| 20260508154136 | 72 | 170 | 0.0 | 8.0 | 0.00 | 0.00 | 0.00 | 67 | 1013.9 |
| 20260508153633 | 72 | 243 | 1.0 | 9.0 | 0.00 | 0.00 | 0.00 | 67 | 1014.1 |
| 20260508153130 | 72 | 202 | 1.0 | 5.0 | 0.00 | 0.00 | 0.00 | 67 | 1014.0 |
| 20260508152626 | 70 | 189 | 3.0 | 5.0 | 0.00 | 0.00 | 0.00 | 69 | 1014.2 |
| 20260508152121 | 70 | 202 | 0.0 | 4.0 | 0.00 | 0.00 | 0.00 | 69 | 1014.2 |
| 20260508151619 | 70 | 219 | 2.0 | 7.0 | 0.00 | 0.00 | 0.00 | 69 | 1014.2 |
| 20260508151115 | 70 | 217 | 1.0 | 5.0 | 0.00 | 0.00 | 0.00 | 69 | 1014.3 |
| 20260508150613 | 71 | 226 | 2.0 | 5.0 | 0.00 | 0.00 | 0.00 | 69 | 1014.1 |
| 20260508150109 | 71 | 230 | 2.0 | 4.0 | 0.00 | 0.00 | 0.00 | 70 | 1014.2 |
| 20260508145605 | 70 | 239 | 1.0 | 6.0 | 0.00 | 0.00 | 0.00 | 73 | 1014.0 |
| 20260508145102 | 68 | 230 | 0.0 | 5.0 | 0.02 | 0.00 | 0.00 | 75 | 1014.1 |
| 20260508144600 | 68 | 205 | 3.0 | 5.0 | 0.02 | 0.00 | 0.00 | 76 | 1014.1 |
| 20260508144056 | 69 | 147 | 3.0 | 8.0 | 0.00 | 0.00 | 0.00 | 71 | 1013.8 |
| 20260508143554 | 71 | 228 | 3.0 | 6.0 | 0.00 | 0.00 | 0.00 | 68 | 1014.4 |
| 20260508143051 | 71 | 185 | 2.0 | 7.0 | 0.00 | 0.00 | 0.00 | 67 | 1014.2 |
| 20260508142547 | 72 | 243 | 3.0 | 5.0 | 0.00 | 0.00 | 0.00 | 67 | 1014.4 |
| 20260508142044 | 70 | 18 | 2.0 | 4.0 | 0.00 | 0.00 | 0.00 | 70 | 1014.2 |